Powrót do katalogu

DELTA 1 DEB

LostLEO
NORAD 29182·DEBRIS·🇺🇸 United States

Wystrzelony Jan 11, 1968 z Vandenberg Space Force Base

Loading…

Następne Przeloty (najbliższe 24 godziny)

TLE

NieaktualneSource: Space-Track

Epoka: Mar 21, 2024, 08:38 UTC

1 29182U 68002F   24081.36039478  .00001976  00000-0  41233-2 0  9991
2 29182 105.8352 274.7159 0263362 303.6145  54.0068 13.22234020115040

Śledź DELTA 1 DEB w czasie rzeczywistym z AllMySat

Download on the App Store